CW4869 Weather Reports


time (UTC)temp
C
wind
direction
speed
KPH
gust
KPH
rain 1hr
cm
rain 24hr
cm
rain mn
cm
humidity
%
barometer
mb
20260509090041 11 194 20.9 25.7 0.00 0.00 0.00 71 1001.9
20260509085527 11 196 22.5 25.7 0.00 0.00 0.00 70 1002.0
20260509085038 11 196 19.3 24.1 0.00 0.00 0.00 73 1002.0
20260509084528 11 194 19.3 24.1 0.00 0.00 0.00 75 1002.1
20260509084040 11 186 20.9 24.1 0.00 0.00 0.00 75 1002.0
20260509083528 10 183 20.9 24.1 0.00 0.00 0.00 78 1002.0
20260509083035 10 190 19.3 22.5 0.00 0.00 0.00 83 1002.1
20260509082523 10 181 19.3 22.5 0.00 0.00 0.00 83 1002.1
20260509082037 10 181 19.3 27.4 0.00 0.00 0.00 84 1002.2
20260509081524 10 182 22.5 27.4 0.00 0.00 0.00 84 1002.1
20260509081032 10 184 22.5 27.4 0.00 0.00 0.00 85 1002.1
20260509080541 10 178 22.5 27.4 0.00 0.00 0.00 85 1002.1
20260509080040 10 172 22.5 27.4 0.00 0.00 0.00 84 1002.1
20260509075548 10 163 20.9 25.7 0.00 0.00 0.00 85 1002.1
20260509075039 10 157 19.3 24.1 0.00 0.00 0.00 86 1002.0
20260509074527 10 167 19.3 24.1 0.00 0.00 0.00 86 1002.1
20260509074058 10 167 19.3 22.5 0.00 0.00 0.00 86 1002.2
20260509073524 10 181 19.3 22.5 0.00 0.00 0.00 86 1002.3
20260509073049 10 175 19.3 22.5 0.00 0.00 0.00 86 1002.3
20260509072531 10 179 19.3 22.5 0.00 0.00 0.00 85 1002.3
20260509072025 10 175 19.3 22.5 0.00 0.00 0.00 85 1002.3
20260509071535 10 169 20.9 22.5 0.00 0.00 0.00 85 1002.4
20260509071028 11 171 17.7 22.5 0.00 0.00 0.00 85 1002.5
20260509070559 11 165 19.3 20.9 0.00 0.00 0.00 84 1002.4
20260509070030 11 172 16.1 24.1 0.00 0.00 0.00 84 1002.4
20260509065538 11 169 17.7 24.1 0.00 0.00 0.00 83 1002.5
20260509065100 11 163 17.7 25.7 0.00 0.00 0.00 83 1002.5
20260509064525 11 163 24.1 25.7 0.00 0.00 0.00 83 1002.5
20260509064104 11 166 20.9 24.1 0.00 0.00 0.00 82 1002.6
20260509063524 11 166 19.3 22.5 0.00 0.00 0.00 81 1002.7
20260509063036 11 170 20.9 22.5 0.00 0.00 0.00 81 1002.7
20260509062548 11 166 19.3 22.5 0.00 0.00 0.00 80 1002.8
20260509062035 11 156 17.7 22.5 0.00 0.00 0.00 80 1002.9
20260509061525 11 163 17.7 22.5 0.00 0.00 0.00 78 1003.0
20260509061039 11 157 17.7 22.5 0.00 0.00 0.00 78 1003.0
20260509060527 11 160 19.3 22.5 0.00 0.00 0.00 77 1003.1
20260509060043 11 160 17.7 22.5 0.00 0.00 0.00 75 1003.0
20260509055553 11 158 19.3 24.1 0.00 0.00 0.00 76 1003.1
20260509055028 11 151 20.9 24.1 0.00 0.00 0.00 75 1003.2
20260509054041 11 154 19.3 22.5 0.00 0.00 0.00 73 1003.3
20260509053530 11 148 19.3 20.9 0.00 0.00 0.00 70 1003.2
20260509053037 11 155 16.1 19.3 0.00 0.00 0.00 71 1003.4
20260509052525 11 156 17.7 22.5 0.00 0.00 0.00 68 1003.5
20260509052035 11 152 17.7 24.1 0.00 0.00 0.00 69 1003.5
20260509051548 12 155 20.9 24.1 0.00 0.00 0.00 68 1003.5
20260509051037 12 155 16.1 19.3 0.00 0.00 0.00 69 1003.5
20260509050523 12 155 14.5 17.7 0.00 0.00 0.00 70 1003.4
20260509050037 13 186 12.9 14.5 0.00 0.00 0.00 73 1003.5
20260509045041 13 211 12.9 14.5 0.00 0.00 0.00 71 1003.6
20260509044529 13 206 11.3 14.5 0.00 0.00 0.00 72 1003.6
20260509044035 13 208 12.9 14.5 0.00 0.00 0.00 71 1003.6
20260509043523 13 200 12.9 14.5 0.00 0.00 0.00 72 1003.6
20260509043038 13 195 11.3 12.9 0.00 0.00 0.00 73 1003.7
20260509042527 13 192 11.3 16.1 0.00 0.00 0.00 73 1003.7
20260509042032 13 189 11.3 16.1 0.00 0.00 0.00 71 1003.8
20260509041525 13 198 11.3 16.1 0.00 0.00 0.00 75 1003.8
20260509041037 13 208 12.9 16.1 0.00 0.00 0.00 73 1003.9
20260509040540 13 198 12.9 14.5 0.00 0.00 0.00 73 1003.8
20260509040047 13 212 12.9 17.7 0.00 0.00 0.00 73 1003.9
20260509035524 13 211 12.9 17.7 0.00 0.00 0.00 73 1003.9
20260509035058 13 216 14.5 17.7 0.00 0.00 0.00 74 1003.9
20260509034548 13 215 14.5 16.1 0.00 0.00 0.00 73 1003.9
20260509034038 13 215 12.9 17.7 0.00 0.00 0.00 72 1003.9
20260509033526 13 219 14.5 17.7 0.00 0.00 0.00 72 1004.0
20260509033034 13 204 14.5 17.7 0.00 0.00 0.00 71 1004.0
20260509032550 13 204 16.1 17.7 0.00 0.00 0.00 71 1004.0
20260509032054 13 206 16.1 19.3 0.00 0.00 0.00 72 1004.0
20260509031539 13 202 16.1 19.3 0.00 0.00 0.00 72 1004.1
20260509031032 13 207 14.5 19.3 0.00 0.00 0.00 70 1004.1
20260509030524 13 207 16.1 19.3 0.00 0.00 0.00 70 1004.2
20260509030036 13 200 16.1 19.3 0.00 0.00 0.00 69 1004.2
20260509025544 13 209 16.1 19.3 0.00 0.00 0.00 70 1004.2
20260509025034 13 205 17.7 20.9 0.00 0.00 0.00 70 1004.2
20260509024524 13 205 17.7 19.3 0.00 0.00 0.00 72 1004.2
20260509024117 13 204 16.1 19.3 0.00 0.00 0.00 73 1004.2
20260509023532 13 198 16.1 19.3 0.00 0.00 0.00 75 1004.2
20260509023025 13 199 14.5 17.7 0.00 0.00 0.00 77 1004.2
20260509022528 13 203 14.5 17.7 0.00 0.00 0.00 77 1004.3
20260509022033 13 201 14.5 16.1 0.00 0.00 0.00 78 1004.3
20260509021539 13 202 12.9 16.1 0.00 0.00 0.00 79 1004.3
20260509021026 13 204 12.9 17.7 0.00 0.00 0.00 76 1004.3
20260509020047 14 204 14.5 17.7 0.00 0.00 0.00 75 1004.3
20260509015533 14 208 14.5 17.7 0.00 0.00 0.00 73 1004.3
20260509015047 14 217 14.5 19.3 0.00 0.00 0.00 73 1004.2
20260509014545 14 218 16.1 19.3 0.00 0.00 0.00 72 1004.2
20260509014034 14 208 14.5 19.3 0.00 0.00 0.00 73 1004.2
20260509013524 14 210 16.1 19.3 0.00 0.00 0.00 72 1004.1
20260509012540 14 210 14.5 17.7 0.00 0.00 0.00 71 1004.1
20260509012033 14 211 16.1 17.7 0.00 0.00 0.00 70 1004.1
20260509011543 15 220 14.5 17.7 0.00 0.00 0.00 70 1004.0
20260509011023 15 212 16.1 20.9 0.00 0.00 0.00 68 1004.0
20260509010531 15 200 16.1 22.5 0.00 0.00 0.00 65 1004.0
20260509010025 15 213 19.3 24.1 0.00 0.00 0.00 64 1004.0
20260509005529 15 222 19.3 24.1 0.00 0.00 0.00 64 1003.9
20260509005043 15 217 20.9 25.7 0.00 0.00 0.00 61 1003.9
20260509004529 15 225 20.9 25.7 0.00 0.00 0.00 60 1004.0
20260509004041 15 221 20.9 24.1 0.00 0.00 0.00 62 1003.9
20260509003552 15 212 19.3 22.5 0.00 0.00 0.00 65 1003.9
20260509003024 15 212 16.1 20.9 0.00 0.00 0.00 63 1003.9
20260509002532 15 215 17.7 22.5 0.00 0.00 0.00 60 1003.9
20260509002104 15 214 19.3 24.1 0.00 0.00 0.00 61 1003.9
20260509001533 15 219 19.3 24.1 0.00 0.00 0.00 61 1003.9
20260509001026 15 215 17.7 24.1 0.00 0.00 0.00 59 1003.9
20260509000534 15 219 19.3 24.1 0.00 0.00 0.00 55 1003.8
20260509000041 16 217 19.3 27.4 0.00 0.00 0.00 60 1003.8
20260508235525 16 216 22.5 27.4 0.00 0.00 0.00 52 1003.8
20260508235101 16 222 22.5 29.0 0.00 0.00 0.00 53 1003.9
20260508234531 16 222 24.1 29.0 0.00 0.00 0.00 52 1003.9
20260508234024 16 218 22.5 30.6 0.00 0.00 0.00 55 1004.0
20260508233532 16 217 25.7 30.6 0.00 0.00 0.00 53 1004.0
20260508233026 16 225 25.7 30.6 0.00 0.00 0.00 59 1004.0
20260508232532 16 214 24.1 30.6 0.00 0.00 0.00 57 1003.9
20260508232043 16 212 25.7 30.6 0.00 0.00 0.00 54 1004.0
20260508231531 16 215 22.5 30.6 0.00 0.00 0.00 58 1004.0
20260508231037 16 210 25.7 30.6 0.00 0.00 0.00 54 1004.0
20260508230529 16 220 24.1 32.2 0.00 0.00 0.00 57 1004.0
20260508230024 16 210 22.5 29.0 0.00 0.00 0.00 54 1004.0
20260508225533 16 218 25.7 33.8 0.00 0.00 0.00 58 1004.1
20260508225104 16 210 27.4 33.8 0.00 0.00 0.00 55 1004.1
20260508224556 16 195 24.1 33.8 0.00 0.00 0.00 56 1004.1
20260508224045 16 207 29.0 35.4 0.00 0.00 0.00 55 1004.1
20260508223530 16 218 30.6 35.4 0.00 0.00 0.00 51 1004.1
20260508223024 16 213 29.0 38.6 0.00 0.00 0.00 53 1004.2
20260508222557 16 218 27.4 38.6 0.00 0.00 0.00 54 1004.2
20260508222031 16 226 32.2 37.0 0.00 0.00 0.00 50 1004.3
20260508221541 16 208 27.4 32.2 0.00 0.00 0.00 51 1004.3
20260508221034 16 213 24.1 32.2 0.00 0.00 0.00 56 1004.3
20260508220522 16 218 25.7 33.8 0.00 0.00 0.00 54 1004.4
20260508220027 16 223 27.4 35.4 0.00 0.00 0.00 50 1004.4
20260508215536 16 231 30.6 35.4 0.00 0.00 0.00 53 1004.3
20260508215029 16 221 27.4 35.4 0.00 0.00 0.00 52 1004.4
20260508214536 16 223 25.7 37.0 0.00 0.00 0.00 56 1004.3
20260508214051 16 222 32.2 37.0 0.00 0.00 0.00 48 1004.3
20260508213541 16 223 27.4 37.0 0.00 0.00 0.00 51 1004.4
20260508213033 16 216 29.0 38.6 0.00 0.00 0.00 52 1004.4
20260508212536 16 225 32.2 38.6 0.00 0.00 0.00 50 1004.4
20260508212029 16 224 29.0 38.6 0.00 0.00 0.00 51 1004.5
20260508211526 16 217 27.4 35.4 0.00 0.00 0.00 55 1004.5
20260508211100 16 222 30.6 38.6 0.00 0.00 0.00 54 1004.7
20260508210547 16 213 29.0 40.2 0.00 0.00 0.00 52 1004.7
20260508210122 16 216 30.6 40.2 0.00 0.00 0.00 57 1004.8
20260508205534 16 223 30.6 38.6 0.00 0.00 0.00 51 1004.7
20260508205026 16 216 25.7 40.2 0.00 0.00 0.00 50 1004.8
20260508204555 16 216 32.2 40.2 0.00 0.00 0.00 55 1004.9
20260508204042 16 229 32.2 38.6 0.00 0.00 0.00 50 1005.0
20260508203531 16 214 25.7 37.0 0.00 0.00 0.00 51 1005.0
20260508203048 15 217 24.1 38.6 0.00 0.00 0.00 47 1005.1
20260508202534 16 221 32.2 38.6 0.00 0.00 0.00 49 1005.2
20260508202024 15 230 30.6 37.0 0.00 0.00 0.00 49 1005.3
20260508201531 15 223 30.6 35.4 0.00 0.00 0.00 52 1005.3
20260508201025 16 217 27.4 37.0 0.00 0.00 0.00 48 1005.4
20260508200538 15 207 32.2 37.0 0.00 0.00 0.00 53 1005.4
20260508200031 15 217 29.0 35.4 0.00 0.00 0.00 51 1005.5
20260508195532 15 224 27.4 32.2 0.00 0.00 0.00 57 1005.6
20260508195046 15 218 25.7 37.0 0.00 0.00 0.00 53 1005.7
20260508194535 15 221 29.0 37.0 0.00 0.00 0.00 49 1005.8
20260508194026 15 223 29.0 35.4 0.00 0.00 0.00 52 1005.8
20260508193614 15 217 27.4 38.6 0.00 0.00 0.00 50 1005.9
20260508193053 15 222 29.0 37.0 0.00 0.00 0.00 48 1006.0
20260508192523 15 223 29.0 38.6 0.00 0.00 0.00 50 1006.1
20260508192030 15 221 29.0 35.4 0.00 0.00 0.00 49 1006.2
20260508191537 15 214 27.4 35.4 0.00 0.00 0.00 51 1006.2
20260508191028 15 220 25.7 33.8 0.00 0.00 0.00 51 1006.3
20260508190534 15 228 27.4 33.8 0.00 0.00 0.00 53 1006.4
20260508190113 15 226 29.0 33.8 0.00 0.00 0.00 50 1006.4
20260508185550 15 225 25.7 32.2 0.00 0.00 0.00 46 1006.6
20260508185037 15 224 24.1 30.6 0.00 0.00 0.00 50 1006.6
20260508184526 15 227 24.1 30.6 0.00 0.00 0.00 49 1006.7
20260508184039 15 228 25.7 33.8 0.00 0.00 0.00 50 1006.8
20260508183525 15 222 27.4 35.4 0.00 0.00 0.00 47 1006.8
20260508183035 15 215 24.1 32.2 0.00 0.00 0.00 53 1006.9
20260508182521 15 231 24.1 32.2 0.00 0.00 0.00 52 1007.0
20260508182035 15 225 25.7 30.6 0.00 0.00 0.00 50 1007.0
20260508181539 15 217 24.1 32.2 0.00 0.00 0.00 50 1007.2
20260508181029 15 229 25.7 33.8 0.00 0.00 0.00 55 1007.3
20260508180538 14 227 25.7 33.8 0.00 0.00 0.00 53 1007.3
20260508180028 14 222 27.4 33.8 0.00 0.00 0.00 52 1007.4
20260508175530 14 227 24.1 32.2 0.00 0.00 0.00 50 1007.4
20260508175040 14 234 25.7 30.6 0.00 0.00 0.00 56 1007.5
20260508174530 14 232 25.7 33.8 0.00 0.00 0.00 51 1007.6
20260508174036 14 222 25.7 30.6 0.00 0.00 0.00 55 1007.7
20260508173545 13 224 22.5 29.0 0.00 0.00 0.00 52 1007.7
20260508173036 13 225 24.1 30.6 0.00 0.00 0.00 51 1007.8
20260508172525 14 228 22.5 30.6 0.00 0.00 0.00 56 1007.9
20260508172057 13 240 20.9 30.6 0.00 0.00 0.00 55 1008.0
20260508171557 13 229 25.7 33.8 0.00 0.00 0.00 59 1007.9
20260508171023 14 228 27.4 33.8 0.00 0.00 0.00 54 1008.1
20260508170555 14 236 25.7 32.2 0.00 0.00 0.00 55 1008.2
20260508165548 13 226 24.1 32.2 0.00 0.00 0.00 58 1008.3
20260508165102 14 235 25.7 30.6 0.00 0.00 0.00 56 1008.3
20260508164529 13 242 24.1 29.0 0.00 0.00 0.00 62 1008.3
20260508164037 13 219 24.1 27.4 0.00 0.00 0.00 61 1008.4
20260508163525 13 239 22.5 29.0 0.00 0.00 0.00 57 1008.4
20260508163035 13 235 24.1 27.4 0.00 0.00 0.00 59 1008.4
20260508162523 13 239 22.5 30.6 0.00 0.00 0.00 58 1008.4
20260508162030 13 240 25.7 30.6 0.00 0.00 0.00 60 1008.6
20260508161537 12 232 20.9 30.6 0.00 0.00 0.00 62 1008.6
20260508161113 13 228 24.1 30.6 0.00 0.00 0.00 59 1008.6
20260508160523 12 229 25.7 30.6 0.00 0.00 0.00 61 1008.7
20260508160033 13 230 24.1 30.6 0.00 0.00 0.00 62 1008.7
20260508155547 12 239 25.7 30.6 0.00 0.00 0.00 61 1008.7
20260508155024 12 239 24.1 29.0 0.00 0.00 0.00 64 1008.8
20260508154531 12 242 25.7 29.0 0.00 0.00 0.00 61 1008.8
20260508154041 12 237 20.9 27.4 0.00 0.00 0.00 63 1008.8
20260508153524 12 225 22.5 29.0 0.00 0.00 0.00 64 1008.8
20260508153036 12 240 25.7 29.0 0.00 0.00 0.00 63 1008.9
20260508152523 12 229 22.5 32.2 0.00 0.00 0.00 65 1008.8
20260508152054 11 225 22.5 32.2 0.00 0.00 0.00 65 1008.9
20260508151524 12 231 24.1 29.0 0.00 0.00 0.00 68 1009.1
20260508151038 12 239 24.1 29.0 0.00 0.00 0.00 66 1009.1
20260508150525 11 235 22.5 29.0 0.00 0.00 0.00 66 1009.1
20260508150033 11 253 22.5 29.0 0.00 0.00 0.00 64 1009.1
20260508145538 11 243 24.1 27.4 0.00 0.00 0.00 65 1009.1
20260508145047 11 235 22.5 27.4 0.00 0.00 0.00 66 1009.1
20260508144059 11 228 22.5 25.7 0.00 0.00 0.00 66 1009.2
20260508143526 11 222 22.5 27.4 0.00 0.00 0.00 67 1009.3
20260508143034 11 238 24.1 27.4 0.00 0.00 0.00 67 1009.3
20260508142540 11 238 20.9 27.4 0.00 0.00 0.00 70 1009.2
20260508142033 11 238 24.1 29.0 0.00 0.00 0.00 69 1009.2
20260508141522 10 234 20.9 29.0 0.00 0.00 0.00 70 1009.2
20260508141026 10 223 22.5 29.0 0.00 0.00 0.00 70 1009.2
20260508140534 10 225 22.5 25.7 0.00 0.00 0.00 69 1009.2
20260508140026 10 244 20.9 25.7 0.00 0.00 0.00 71 1009.2
20260508135529 10 228 20.9 25.7 0.00 0.00 0.00 71 1009.2
20260508135042 10 213 20.9 27.4 0.00 0.00 0.00 71 1009.2
20260508134557 10 228 20.9 27.4 0.00 0.00 0.00 72 1009.1
20260508134025 10 227 22.5 27.4 0.00 0.00 0.00 71 1009.2
20260508133530 10 240 20.9 27.4 0.00 0.00 0.00 71 1009.2
20260508133042 10 229 22.5 25.7 0.00 0.00 0.00 72 1009.2
20260508132529 10 222 19.3 24.1 0.00 0.00 0.00 74 1009.2
20260508132039 10 231 19.3 24.1 0.00 0.00 0.00 75 1009.2
20260508131525 10 247 17.7 24.1 0.00 0.00 0.00 73 1009.2
20260508131034 10 225 17.7 24.1 0.00 0.00 0.00 72 1009.2
20260508130523 10 226 17.7 24.1 0.00 0.00 0.00 71 1009.3
20260508130055 10 238 19.3 24.1 0.00 0.00 0.00 73 1009.3
20260508125540 10 235 17.7 22.5 0.00 0.00 0.00 72 1009.3
20260508125031 10 247 17.7 22.5 0.00 0.00 0.00 73 1009.3
20260508124522 10 239 17.7 22.5 0.00 0.00 0.00 73 1009.2
20260508124034 9 234 16.1 22.5 0.00 0.00 0.00 74 1009.3
20260508123522 9 253 17.7 20.9 0.00 0.00 0.00 77 1009.3
20260508123054 8 225 14.5 20.9 0.00 0.00 0.00 79 1009.3
20260508122523 8 222 14.5 19.3 0.00 0.00 0.00 84 1009.3
20260508122037 8 207 14.5 20.9 0.00 0.00 0.00 84 1009.2
20260508121522 8 214 17.7 22.5 0.00 0.00 0.00 84 1009.2
20260508121023 8 204 19.3 22.5 0.00 0.00 0.00 85 1009.1
20260508120532 8 201 17.7 20.9 0.00 0.00 0.00 84 1009.0
20260508120039 8 206 14.5 19.3 0.00 0.00 0.00 84 1009.0
20260508115553 8 201 16.1 19.3 0.00 0.00 0.00 83 1008.9
20260508115024 8 196 16.1 19.3 0.00 0.00 0.00 82 1008.9
20260508114525 7 199 14.5 17.7 0.00 0.00 0.00 81 1008.9
20260508114103 7 200 14.5 17.7 0.00 0.00 0.00 80 1008.8
20260508113533 7 199 14.5 17.7 0.00 0.00 0.00 80 1008.8
20260508113025 7 194 14.5 17.7 0.00 0.00 0.00 79 1008.9
20260508112527 7 198 14.5 17.7 0.00 0.00 0.00 77 1008.9
20260508112039 7 200 14.5 17.7 0.00 0.00 0.00 77 1008.9
20260508111527 8 186 12.9 17.7 0.00 0.00 0.00 76 1008.8
20260508111036 8 192 14.5 17.7 0.00 0.00 0.00 74 1008.8
20260508110550 8 191 14.5 17.7 0.00 0.00 0.00 75 1008.8
20260508110039 8 189 12.9 14.5 0.00 0.00 0.00 74 1008.8
20260508105550 7 218 9.7 12.9 0.00 0.00 0.00 74 1008.9
20260508105039 7 200 8.0 14.5 0.00 0.00 0.00 74 1008.8
20260508104529 7 196 9.7 14.5 0.00 0.00 0.00 74 1008.9
20260508104041 7 199 12.9 17.7 0.00 0.00 0.00 74 1008.9
20260508103524 6 225 11.3 17.7 0.00 0.00 0.00 62 1008.9
20260508103103 6 261 6.4 12.9 0.00 0.00 0.00 62 1008.9
20260508102528 6 279 6.4 12.9 0.00 0.00 0.00 62 1008.9
20260508102035 6 269 6.4 11.3 0.00 0.00 0.00 62 1008.8
20260508101542 6 283 4.8 8.0 0.00 0.00 0.00 61 1008.9
20260508101024 6 304 4.8 8.0 0.00 0.00 0.00 61 1008.9
20260508100531 6 314 4.8 8.0 0.00 0.00 0.00 61 1008.9
20260508100025 6 258 4.8 8.0 0.00 0.00 0.00 61 1008.9
20260508095045 6 269 4.8 6.4 0.00 0.00 0.00 61 1009.0
20260508094533 6 292 3.2 6.4 0.00 0.00 0.00 61 1008.9
20260508094129 6 319 3.2 8.0 0.00 0.00 0.00 61 1008.9
20260508093534 6 276 4.8 8.0 0.00 0.00 0.00 61 1009.0
20260508093027 6 262 3.2 4.8 0.00 0.00 0.00 61 1009.0
20260508092538 6 309 3.2 6.4 0.00 0.00 0.00 61 1009.1
20260508092030 6 309 3.2 6.4 0.00 0.00 0.00 61 1009.0
20260508091600 6 291 3.2 6.4 0.00 0.00 0.00 61 1009.1
20260508091057 6 288 3.2 6.4 0.00 0.00 0.00 62 1009.1
20260508090626 6 314 3.2 6.4 0.00 0.00 0.00 63 1009.0